Weather History for HELX - February, 2014

Change the Weather History Date:

Sunday, February 9, 2014

  Actual Average Record
Temperature  
Mean Temperature 63 °F -  
Max Temperature 79 °F 76 °F 89 °F (2009)
Min Temperature 47 °F 49 °F 37 °F (1997)
Degree Days  
Heating Degree Days 2    
Growing Degree Days 13 (Base 50)    
Moisture  
Dew Point 43 °F    
Average Humidity 47    
Maximum Humidity 67    
Minimum Humidity 20    
Precipitation  
Precipitation 0.00 in 0.00 in - ()
Sea Level Pressure  
Sea Level Pressure 30.08 in    
Wind  
Wind Speed 1 mph ()    
Max Wind Speed 8 mph    
Max Gust Speed -    
Visibility 5.3 miles    
Events      
Averages and records for this station are not official NWS values.
T = Trace of Precipitation, MM = Missing Value Source: Averaged Metar Reports

Daily Weather History Graph

Daily Weather History Graph

Search for Another Location

Airport or City:

Trip Planner

Search our weather history database for the weather conditions in past years. The results will help you decide how hot, cold, wet, or windy it might be!

Date:

Astronomy

Feb. 09, 2014 Rise Set
Actual Time 6:28 AM EET 5:38 PM EET
Civil Twilight 6:04 AM EET 6:02 PM EET
Nautical Twilight 5:37 AM EET 6:29 PM EET
Astronomical Twilight 5:10 AM EET 6:56 PM EET
Moon 1:12 PM EET (2/9) 2:06 AM EET (2/9)
Length of Visible Light 11h 57m
Length of Day
11h 10m
Waxing Gibbous, 74% of the Moon is Illuminated
Feb 9
Waxing Gibbous
Feb 15
Full
Feb 22
Last Quarter
Mar 1
New
Mar 8
First Quarter

Hourly Weather History & Observations

Time (EET) Temp. Dew Point Humidity Pressure Visibility Wind Dir Wind Speed Gust Speed Precip Events Conditions
12:00 AM 55.4 °F 41.0 °F 58% 30.06 in - Calm Calm - N/A   Clear
1:00 AM 55.4 °F 37.4 °F 51% 30.06 in - Calm Calm - N/A   Clear
2:00 AM 53 °F 37 °F 44% 30.09 in 6 mi Calm Calm - -  
2:00 AM 51.8 °F 37.4 °F 58% 30.06 in - Calm Calm - N/A   Clear
3:00 AM 51.8 °F 37.4 °F 58% 30.09 in - Calm Calm - N/A   Clear
4:00 AM 51.8 °F 37.4 °F 58% 30.09 in - ENE 2.3 mph - N/A   Clear
5:00 AM 51 °F 38 °F 50% 30.10 in 6 mi ENE 1.2 mph - -  
5:00 AM 51.8 °F 37.4 °F 58% 30.09 in - ENE 1.2 mph - N/A   Clear
6:00 AM 48.2 °F 37.4 °F 66% 30.09 in - Calm Calm - N/A   Clear
7:00 AM 48.2 °F 37.4 °F 66% 30.12 in - Calm Calm - N/A   Clear
8:00 AM 53 °F 40 °F 52% 30.16 in 6 mi Calm Calm - -  
8:00 AM 51.8 °F 41.0 °F 67% 30.15 in - Calm Calm - N/A   Clear
9:00 AM 59.0 °F 44.6 °F 59% 30.15 in 4.3 mi Calm Calm - N/A   Unknown
10:00 AM 62.6 °F 44.6 °F 52% 30.15 in 4.3 mi North 2.3 mph - N/A   Unknown
11:00 AM 68 °F 47 °F 36% 30.14 in 4 mi NW 2.3 mph - -   Haze
11:00 AM 68.0 °F 46.4 °F 46% 30.12 in 4.3 mi NW 2.3 mph - N/A   Unknown
12:00 PM 71.6 °F 46.4 °F 41% 30.09 in 4.3 mi North 3.5 mph - N/A   Unknown
1:00 PM 73.4 °F 46.4 °F 38% 30.06 in - NNE 3.5 mph - N/A   Clear
2:00 PM 77 °F 47 °F 24% 30.05 in 6 mi NNW 3.5 mph - -  
2:00 PM 77.0 °F 48.2 °F 36% 30.06 in - NNW 3.5 mph - N/A   Clear
3:00 PM 77.0 °F 46.4 °F 34% 30.04 in - NNW 3.5 mph - N/A   Clear
4:00 PM 78.8 °F 44.6 °F 30% 30.04 in - WNW 6.9 mph - N/A   Clear
5:00 PM 77 °F 44 °F 20% 30.03 in 6 mi NNW 2.3 mph - -  
5:00 PM 77.0 °F 44.6 °F 32% 30.04 in - NNW 2.3 mph - N/A   Clear
6:00 PM 73.4 °F 42.8 °F 33% 30.04 in - Calm Calm - N/A   Clear
7:00 PM 69.8 °F 44.6 °F 40% 30.04 in - North 4.6 mph - N/A   Clear
8:00 PM 67 °F 45 °F 34% 30.06 in 6 mi Calm Calm - -  
8:00 PM 66.2 °F 44.6 °F 46% 30.06 in - Calm Calm - N/A   Clear
9:00 PM 66.2 °F 44.6 °F 46% 30.06 in - East 8.1 mph - N/A   Clear
10:00 PM 64.4 °F 44.6 °F 49% 30.09 in - Calm Calm - N/A   Clear
11:00 PM 59 °F 45 °F 49% 30.10 in 6 mi Calm Calm - -  
11:00 PM 59.0 °F 44.6 °F 59% 30.09 in - Calm Calm - N/A   Clear